CW0315 Weather Reports


time (UTC)temp
C
wind
direction
speed
KPH
gust
KPH
rain 1hr
cm
rain 24hr
cm
rain mn
cm
humidity
%
barometer
mb
20260507144313 11 337 8.0 19.3 0.00 0.89 0.00 75 1010.7
20260507143313 11 292 1.6 17.7 0.00 0.89 0.00 74 1010.9
20260507142313 11 315 0.0 16.1 0.00 0.89 0.00 73 1010.7
20260507141313 11 292 6.4 22.5 0.00 0.89 0.00 74 1010.4
20260507140312 11 360 4.8 14.5 0.00 0.89 0.00 71 1010.3
20260507134312 11 270 0.0 6.4 0.00 0.89 0.00 72 1010.4
20260507133312 11 270 6.4 14.5 0.00 0.89 0.00 71 1010.4
20260507132312 12 157 0.0 12.9 0.00 0.89 0.00 69 1010.4
20260507131312 12 292 9.7 14.5 0.00 0.89 0.00 69 1010.2
20260507130312 12 270 3.2 17.7 0.00 0.89 0.00 72 1010.2
20260507125312 12 292 4.8 14.5 0.00 0.89 0.00 68 1010.2
20260507124311 12 315 4.8 17.7 0.00 0.89 0.00 65 1010.2
20260507123312 12 292 8.0 16.1 0.00 0.89 0.00 67 1010.3
20260507122311 12 202 4.8 17.7 0.00 0.89 0.00 69 1010.1
20260507121311 12 292 3.2 12.9 0.00 0.89 0.00 73 1010.4
20260507120311 12 157 4.8 14.5 0.00 0.89 0.00 71 1010.3
20260507115311 12 180 3.2 14.5 0.00 0.89 0.00 69 1010.3
20260507114311 12 180 4.8 17.7 0.00 0.89 0.00 69 1010.3
20260507113311 12 270 4.8 16.1 0.00 0.89 0.00 71 1010.3
20260507112310 11 202 4.8 12.9 0.00 0.89 0.00 73 1010.1
20260507111310 11 157 6.4 14.5 0.00 0.89 0.00 73 1010.1
20260507110310 11 292 1.6 11.3 0.00 0.89 0.00 73 1010.1
20260507105310 11 270 3.2 16.1 0.00 0.89 0.00 72 1010.1
20260507104310 11 247 4.8 14.5 0.00 0.89 0.00 71 1010.1
20260507103310 11 180 3.2 19.3 0.00 0.89 0.00 72 1010.0
20260507102310 11 292 3.2 25.7 0.00 0.89 0.00 72 1010.0
20260507101309 11 180 16.1 20.9 0.00 0.89 0.00 74 1010.0
20260507100309 11 292 6.4 25.7 0.00 0.89 0.00 73 1009.6
20260507095310 11 202 19.3 25.7 0.00 0.89 0.00 75 1009.6
20260507094310 11 180 14.5 20.9 0.00 0.89 0.00 74 1009.7
20260507093309 10 202 19.3 24.1 0.00 0.89 0.00 78 1009.5
20260507092314 10 292 4.8 14.5 0.00 0.89 0.00 81 1009.5
20260507091314 9 270 4.8 16.1 0.00 0.89 0.00 84 1009.2
20260507090314 9 270 4.8 16.1 0.00 0.89 0.00 81 1009.3
20260507085313 10 180 4.8 12.9 0.00 0.89 0.00 81 1009.5
20260507084313 9 180 4.8 14.5 0.00 0.89 0.00 84 1009.3
20260507083313 8 247 1.6 11.3 0.00 0.89 0.00 86 1009.1
20260507082313 8 202 6.4 24.1 0.00 0.89 0.00 84 1009.1
20260507081313 8 180 9.7 16.1 0.00 0.89 0.00 84 1008.8
20260507075313 9 135 0.0 9.7 0.00 0.89 0.00 85 1009.1
20260507074316 8 247 0.0 6.4 0.00 0.89 0.00 88 1008.8
20260507073312 8 270 1.6 8.0 0.00 0.89 0.00 87 1008.6
20260507072312 8 0 0.0 4.8 0.00 0.89 0.00 88 1008.6
20260507071312 8 0 0.0 4.8 0.00 0.89 0.00 87 1008.6
20260507070312 8 292 6.4 9.7 0.00 0.89 0.00 90 1008.7
20260507065312 9 0 0.0 0.0 0.00 0.89 0.00 89 1008.8
20260507064312 8 0 0.0 6.4 0.00 0.89 0.00 93 1008.8
20260507063312 8 0 0.0 6.4 0.00 0.89 0.00 94 1008.6
20260507062312 8 180 6.4 12.9 0.00 0.89 0.00 94 1008.6
20260507061311 7 157 1.6 14.5 0.00 0.89 0.00 95 1008.3
20260507060311 7 180 9.7 19.3 0.00 0.89 0.00 95 1008.2
20260507055311 7 202 6.4 11.3 0.00 0.89 0.00 95 1008.3
20260507053311 7 180 1.6 11.3 0.00 0.89 0.00 96 1008.6
20260507052311 7 180 1.6 11.3 0.00 0.89 0.00 96 1008.6
20260507051310 7 180 6.4 11.3 0.00 0.89 0.00 96 1008.3
20260507050310 7 180 6.4 12.9 0.00 0.89 0.00 96 1008.3
20260507045310 7 180 6.4 9.7 0.00 0.89 0.00 96 1008.2
20260507044310 7 180 1.6 11.3 0.00 0.89 0.00 96 1008.0
20260507043310 7 180 3.2 9.7 0.00 0.89 0.00 96 1007.9
20260507042313 7 180 3.2 12.9 0.00 0.89 0.00 96 1007.9
20260507041310 7 202 0.0 9.7 0.00 0.89 0.00 96 1008.0
20260507040310 7 247 3.2 9.7 0.00 0.89 0.00 96 1007.9
20260507035309 7 0 0.0 8.0 0.00 0.89 0.00 96 1007.9
20260507034309 7 0 0.0 3.2 0.00 0.89 0.00 96 1008.0
20260507033309 8 270 1.6 9.7 0.00 0.89 0.00 97 1008.1
20260507031309 8 180 4.8 9.7 0.00 0.89 0.00 97 1008.0
20260507030314 8 180 1.6 11.3 0.00 0.89 0.00 97 1007.9
20260507025314 8 157 1.6 8.0 0.00 0.89 0.00 97 1007.9
20260507024313 8 202 3.2 4.8 0.00 0.89 0.00 97 1008.0
20260507023313 8 247 0.0 9.7 0.00 0.89 0.00 98 1008.0
20260507022313 8 202 8.0 11.3 0.00 0.89 0.00 98 1008.0
20260507021313 8 180 6.4 9.7 0.00 0.89 0.00 98 1008.0
20260507015313 8 202 8.0 11.3 0.00 0.89 0.00 98 1007.8
20260507013313 8 202 1.6 9.7 0.00 0.89 0.00 98 1007.5
20260507012312 8 202 1.6 8.0 0.00 0.89 0.00 98 1007.5
20260507011312 8 180 0.0 8.0 0.00 0.89 0.00 98 1007.5
20260507010312 8 112 0.0 12.9 0.00 0.89 0.00 98 1007.5
20260507005312 8 270 3.2 19.3 0.00 0.89 0.00 98 1007.4
20260507004312 8 180 1.6 11.3 0.00 0.89 0.00 98 1007.4
20260507003312 8 270 3.2 16.1 0.00 0.89 0.00 98 1007.3
20260507002312 8 202 1.6 16.1 0.00 0.89 0.00 98 1007.2
20260507001312 8 0 0.0 8.0 0.00 0.89 0.00 99 1007.3
20260507000313 8 180 6.4 11.3 0.00 0.89 0.00 98 1007.2
20260506235311 8 180 4.8 8.0 0.00 0.89 0.00 98 1007.0
20260506234311 8 180 4.8 11.3 0.00 0.89 0.00 98 1007.2
20260506232311 8 180 1.6 9.7 0.00 0.89 0.00 98 1007.3
20260506230311 8 180 4.8 12.9 0.00 0.89 0.00 98 1006.9
20260506225311 8 202 4.8 11.3 0.00 0.89 0.00 98 1006.7
20260506224311 8 180 6.4 11.3 0.00 0.89 0.00 98 1006.6
20260506223310 8 180 1.6 11.3 0.00 0.89 0.00 98 1006.5
20260506222310 8 180 1.6 19.3 0.00 0.89 0.00 97 1006.5
20260506221310 9 180 3.2 12.9 0.00 0.89 0.00 97 1006.0
20260506220310 9 180 1.6 14.5 0.00 0.89 0.89 97 1005.9
20260506215310 9 180 3.2 11.3 0.00 0.89 0.89 97 1005.9
20260506214310 9 180 4.8 9.7 0.00 0.89 0.89 97 1006.1
20260506213310 10 292 6.4 14.5 0.00 0.89 0.89 97 1006.1
20260506212311 10 180 1.6 12.9 0.00 0.89 0.89 97 1005.9
20260506211309 10 202 0.0 11.3 0.00 0.89 0.89 96 1005.7
20260506210309 10 292 6.4 16.1 0.00 0.89 0.89 96 1005.5
20260506205314 10 180 8.0 22.5 0.00 0.89 0.89 96 1005.2
20260506204314 10 180 1.6 11.3 0.00 0.89 0.89 96 1005.2
20260506203314 10 180 4.8 19.3 0.00 0.89 0.89 96 1004.1
20260506202314 10 247 0.0 4.8 0.00 0.89 0.89 96 1004.1
20260506201313 10 0 0.0 0.0 0.05 0.89 0.89 95 1004.0
20260506200313 10 0 0.0 0.0 0.15 0.97 0.89 94 1003.9
20260506195313 10 0 0.0 0.0 0.23 0.97 0.89 95 1003.9
20260506193313 10 157 1.6 4.8 0.38 0.97 0.89 92 1002.5
20260506192313 10 315 4.8 27.4 0.51 0.97 0.89 93 1002.5
20260506191312 10 45 8.0 14.5 0.56 0.91 0.86 92 1002.6
20260506190312 10 22 12.9 16.1 0.69 0.84 0.79 91 1002.6
20260506185315 10 22 9.7 14.5 0.64 0.79 0.66 92 1003.0
20260506184312 11 22 6.4 11.3 0.58 0.71 0.58 91 1003.2
20260506182312 11 0 0.0 9.7 0.41 0.53 0.41 89 1003.6
20260506180312 12 337 14.5 25.7 0.10 0.23 0.10 86 1002.0
20260506171311 15 0 0.0 6.4 0.00 0.15 0.00 55 1000.1
20260506170311 16 22 3.2 6.4 0.00 0.15 0.00 54 1000.1
20260506165311 16 0 0.0 0.0 0.00 0.15 0.00 54 1000.2
20260506164311 16 45 1.6 4.8 0.00 0.15 0.00 49 1000.7
20260506163311 16 0 0.0 4.8 0.00 0.15 0.00 53 1000.8
20260506162310 17 0 0.0 0.0 0.00 0.15 0.00 50 1000.8
20260506161310 18 0 0.0 1.6 0.00 0.15 0.00 40 1001.1
20260506160310 18 0 0.0 4.8 0.00 0.15 0.00 40 1001.3
20260506155310 19 202 6.4 8.0 0.00 0.15 0.00 38 1001.4
20260506154310 19 202 1.6 11.3 0.00 0.15 0.00 31 1001.6
20260506153310 19 202 9.7 12.9 0.00 0.15 0.00 38 1001.6
20260506152309 19 180 8.0 12.9 0.00 0.15 0.00 38 1001.6
20260506151310 19 202 3.2 9.7 0.00 0.15 0.00 39 1001.8
20260506150309 20 180 4.8 8.0 0.00 0.15 0.00 42 1002.3